Simultaneous Nadir Overpasses (SNOs) Predictions

Prediction of SNOs between TERRA and METOP-C Satellite Orbit:

Table of predicted SNOs for the next 14.0 days since TLE Epoch: 11/21/2020
Index Date (TERRA) Time (TERRA) Lat,Lon (TERRA) SZA (TERRA ) Date (METOP-C) Time (METOP-C) Lat,Lon (METOP-C) SZA (METOP-C ) Distance(km) Time Diff (sec)
1 11/21/2020 23:46:30 81.28,-129.96 104.43 11/21/2020 23:45:54 81.27,-130.06 104.40 1.73 36
2 11/22/2020 00:35:57 -81.27, 37.60 75.58 11/22/2020 00:36:34 -81.28, 37.52 75.57 1.36 37
3 11/24/2020 19:20:45 81.26, -63.78 104.94 11/24/2020 19:20:18 81.27, -63.61 104.95 2.99 27
4 11/24/2020 20:10:11 -81.28, 104.18 75.01 11/24/2020 20:10:57 -81.28, 104.32 74.97 2.41 46
5 11/27/2020 14:54:59 81.27, 2.73 105.45 11/27/2020 14:54:42 81.27, 2.81 105.45 1.40 17
6 11/27/2020 15:44:25 -81.29, 170.72 74.50 11/27/2020 15:45:21 -81.28, 170.72 74.48 0.62 56
7 11/30/2020 10:29:12 81.27, 69.20 105.89 11/30/2020 10:29:05 81.27, 69.22 105.89 0.37 7
8 11/30/2020 11:18:38 -81.29,-122.79 74.06 11/30/2020 11:19:44 -81.28,-122.89 74.04 2.02 66
9 12/03/2020 05:14:00 -81.27, -32.02 73.74 12/03/2020 05:12:49 -81.27, -32.21 73.80 3.25 71
10 12/03/2020 06:03:26 81.27, 135.63 106.27 12/03/2020 06:03:29 81.27, 135.60 106.27 0.62 3



Historial Predications of SNOs between TERRA and METOP-C
